N0IAE Weather Reports


Display with metric or nautical units.
time (UTC)temp
F
wind
direction
speed
MPH
gust
MPH
rain 1hr
in
rain 24hr
in
rain mn
in
humidity
%
barometer
mb
20260906184552 80 293 0.0 2.0 0.00 0.00 0.00 77 1017.4
20260906183048 81 0 0.0 2.0 0.00 0.00 0.00 77 1016.8
20260906181554 81 267 0.0 2.0 0.00 0.00 0.00 78 1016.8
20260906180051 81 0 0.0 3.0 0.00 0.00 0.00 79 1016.5
20260906174548 80 254 0.0 3.0 0.00 0.00 0.00 80 1016.6
20260906173043 80 283 0.0 6.0 0.00 0.00 0.00 81 1016.5
20260906171555 80 262 3.0 6.0 0.00 0.00 0.00 81 1016.7
20260906170052 79 255 1.0 6.0 0.00 0.00 0.00 82 1016.7
20260906164549 80 263 1.0 5.0 0.00 0.10 0.00 82 1017.0
20260906163049 79 0 0.0 2.0 0.00 0.10 0.00 83 1016.6
20260906161553 79 94 0.0 2.0 0.00 0.10 0.00 83 1016.6
20260906160107 79 221 0.0 4.0 0.00 0.10 0.00 84 1016.4
20260906154556 78 0 0.0 3.0 0.00 0.10 0.00 84 1016.3
20260906153055 78 122 0.0 4.0 0.00 0.10 0.00 84 1016.4
20260906151552 78 0 0.0 2.0 0.00 0.10 0.00 84 1016.1
20260906150056 77 0 0.0 4.0 0.00 0.10 0.00 85 1016.0
20260906144542 77 259 0.0 8.0 0.00 0.10 0.00 84 1016.2
20260906143041 77 110 0.0 4.0 0.00 0.10 0.00 86 1015.9
20260906141554 77 86 2.0 4.0 0.00 0.10 0.00 87 1015.8
20260906140051 77 98 2.0 5.0 0.00 0.10 0.00 88 1015.7
20260906134555 77 73 2.0 6.0 0.00 0.10 0.00 88 1015.7
20260906133112 77 130 2.0 6.0 0.00 0.10 0.00 89 1016.0
20260906131553 76 91 2.0 5.0 0.00 0.10 0.00 89 1015.8
20260906130049 76 127 1.0 3.0 0.00 0.10 0.00 90 1015.8
20260906124555 76 114 1.0 3.0 0.00 0.11 0.00 90 1015.7
20260906123054 76 153 2.0 3.0 0.00 0.11 0.00 90 1015.6
20260906121551 76 120 1.0 5.0 0.00 0.11 0.00 90 1015.8
20260906120048 76 106 1.0 3.0 0.00 0.11 0.00 90 1015.5
20260906114548 76 108 2.0 4.0 0.00 0.14 0.00 90 1015.3
20260906113054 76 105 2.0 5.0 0.00 0.14 0.00 90 1015.2
20260906111555 76 124 2.0 3.0 0.00 0.14 0.00 89 1015.1
20260906110046 77 120 1.0 4.0 0.00 0.14 0.00 89 1014.9
20260906104620 77 100 2.0 4.0 0.00 0.14 0.00 89 1015.0
20260906103053 77 82 2.0 5.0 0.00 0.14 0.00 89 1014.8
20260906101550 77 124 2.0 6.0 0.00 0.14 0.00 89 1015.0
20260906100047 77 120 2.0 4.0 0.00 0.14 0.00 89 1014.9
20260906094553 77 122 2.0 4.0 0.00 0.14 0.00 89 1014.7
20260906093108 77 112 1.0 3.0 0.00 0.14 0.00 89 1014.8
20260906091553 77 104 1.0 2.0 0.00 0.14 0.00 89 1015.0
20260906090050 77 112 2.0 3.0 0.00 0.14 0.00 88 1015.2
20260906084554 77 136 1.0 3.0 0.00 0.14 0.00 88 1015.4
20260906083052 77 111 1.0 2.0 0.00 0.14 0.00 88 1015.2
20260906081553 77 116 1.0 3.0 0.00 0.14 0.00 88 1015.0
20260906080047 77 123 1.0 3.0 0.00 0.14 0.00 88 1014.8
20260906074545 78 89 2.0 4.0 0.00 0.14 0.00 88 1014.6
20260906073053 78 93 1.0 2.0 0.00 0.14 0.00 88 1014.7
20260906071552 78 116 1.0 3.0 0.00 0.14 0.00 88 1015.0
20260906070049 78 115 1.0 3.0 0.00 0.14 0.00 88 1015.0
20260906064542 78 115 1.0 3.0 0.00 0.14 0.00 88 1015.0
20260906063054 78 103 1.0 2.0 0.00 0.14 0.00 87 1015.1
20260906061557 78 113 1.0 4.0 0.00 0.14 0.00 87 1015.1
20260906060049 78 122 1.0 3.0 0.00 0.14 0.00 87 1015.2
20260906054606 78 114 1.0 3.0 0.00 0.14 0.00 87 1015.2
20260906053056 78 139 1.0 3.0 0.00 0.14 0.00 87 1015.0
20260906051553 79 85 1.0 3.0 0.00 0.14 0.00 87 1014.9
20260906050109 79 105 1.0 2.0 0.00 0.14 0.00 87 1014.8
20260906044542 79 117 1.0 2.0 0.00 0.14 0.14 87 1015.0
20260906043051 79 103 0.0 2.0 0.00 0.14 0.14 86 1015.1
20260906041550 79 125 1.0 1.0 0.00 0.14 0.14 86 1015.1
20260906040048 79 135 0.0 1.0 0.00 0.14 0.14 85 1015.4
20260906034554 79 107 0.0 4.0 0.00 0.14 0.14 85 1015.5
20260906033105 80 103 1.0 2.0 0.00 0.14 0.14 85 1015.3
20260906031549 80 107 0.0 3.0 0.00 0.14 0.14 84 1015.1
20260906030055 80 111 0.0 1.0 0.00 0.14 0.14 83 1014.9
20260906024602 80 110 0.0 2.0 0.00 0.14 0.14 82 1014.7
20260906023048 81 117 0.0 2.0 0.00 0.14 0.14 81 1014.7
20260906021555 81 112 0.0 2.0 0.00 0.14 0.14 80 1014.6
20260906020055 81 124 0.0 3.0 0.00 0.14 0.14 79 1014.3
20260906014555 81 135 0.0 4.0 0.00 0.14 0.14 78 1014.2
20260906013043 82 0 0.0 1.0 0.00 0.14 0.14 77 1014.0
20260906011542 82 0 0.0 2.0 0.00 0.14 0.14 75 1013.9
20260906010054 83 117 1.0 2.0 0.00 0.14 0.14 74 1014.0
20260906004547 83 86 1.0 4.0 0.00 0.14 0.14 72 1013.9
20260906003043 84 128 0.0 4.0 0.00 0.14 0.14 70 1013.8
20260906001553 85 121 1.0 4.0 0.00 0.14 0.14 68 1013.7
20260906000053 86 143 2.0 5.0 0.00 0.14 0.14 67 1013.6
20260905234559 87 70 2.0 7.0 0.00 0.14 0.14 65 1013.7
20260905233044 87 34 2.0 5.0 0.00 0.14 0.14 63 1013.6
20260905231555 88 132 2.0 5.0 0.00 0.14 0.14 62 1013.4
20260905230120 89 98 2.0 4.0 0.00 0.14 0.14 59 1013.4
20260905224555 89 149 2.0 5.0 0.00 0.14 0.14 58 1013.3
20260905223052 90 124 2.0 6.0 0.00 0.14 0.14 57 1013.1
20260905221547 90 129 2.0 6.0 0.00 0.14 0.14 55 1013.0
20260905220047 90 125 2.0 8.0 0.00 0.14 0.14 55 1012.8
20260905214553 90 115 4.0 7.0 0.00 0.14 0.14 55 1012.9
20260905213052 90 159 3.0 6.0 0.00 0.14 0.14 55 1012.9
20260905211557 90 107 3.0 7.0 0.00 0.14 0.14 54 1013.2
20260905210048 90 95 3.0 6.0 0.00 0.14 0.14 53 1013.2
20260905204552 90 95 3.0 7.0 0.00 0.14 0.14 53 1013.1
20260905203056 89 132 3.0 7.0 0.00 0.14 0.14 56 1013.0
20260905201548 88 101 2.0 6.0 0.00 0.14 0.14 56 1013.0
20260905200104 88 119 2.0 5.0 0.00 0.14 0.14 53 1013.2
20260905194552 87 150 3.0 8.0 0.00 0.14 0.14 52 1013.3
20260905193104 84 104 2.0 5.0 0.00 0.14 0.14 57 1012.8
20260905191547 81 110 2.0 5.0 0.00 0.14 0.14 64 1012.5
20260905190044 79 113 3.0 6.0 0.00 0.14 0.14 65 1012.2